K5BOU Weather Reports


time (UTC)temp
F
wind
direction
speed
knots
gust
knots
rain 1hr
in
rain 24hr
in
rain mn
in
humidity
%
barometer
mb
20260502163159 70 126 0.0 5.2 0.00 0.00 0.00 67 1018.8
20260502162656 70 113 0.9 5.2 0.00 0.00 0.00 67 1018.7
20260502162153 70 232 0.9 5.2 0.00 0.00 0.00 69 1018.8
20260502161650 69 27 1.7 6.1 0.00 0.00 0.00 68 1018.7
20260502161146 69 28 2.6 5.2 0.00 0.00 0.00 70 1018.8
20260502160645 68 87 3.5 5.2 0.00 0.00 0.00 70 1018.7
20260502160144 68 94 2.6 7.8 0.00 0.00 0.00 71 1018.7
20260502152103 66 60 3.5 6.1 0.00 0.00 0.00 76 1018.6
20260502151600 65 80 0.9 4.3 0.00 0.00 0.00 78 1018.5
20260502151058 65 101 1.7 5.2 0.00 0.00 0.00 79 1018.4
20260502150555 64 114 0.0 2.6 0.00 0.00 0.00 79 1018.7
20260502130440 56 87 0.9 7.0 0.00 0.00 0.00 99 1017.2
20260502123422 54 97 0.0 1.7 0.00 0.00 0.00 99 1016.9
20260502122920 53 165 0.0 2.6 0.00 0.00 0.00 99 1016.9
20260502122416 53 144 1.7 1.7 0.00 0.00 0.00 99 1016.8
20260502121914 53 290 0.0 1.7 0.00 0.00 0.00 99 1016.8
20260502121411 53 172 0.0 2.6 0.00 0.00 0.00 99 1016.6
20260502120908 53 163 0.0 2.6 0.00 0.00 0.00 99 1016.6
20260502120404 53 164 0.0 0.0 0.00 0.00 0.00 99 1016.4
20260502115902 53 154 0.0 0.0 0.00 0.00 0.00 99 1016.3
20260502115359 53 178 0.0 0.9 0.00 0.00 0.00 99 1016.5
20260502114855 53 108 0.0 0.9 0.00 0.00 0.00 99 1016.3
20260502114352 53 136 0.0 0.9 0.00 0.00 0.00 99 1016.2
20260502113849 53 132 0.0 0.9 0.00 0.00 0.00 99 1016.2
20260502113346 53 39 0.9 1.7 0.00 0.00 0.00 99 1016.3
20260502112845 53 136 0.0 0.9 0.00 0.00 0.00 99 1016.0
20260502112342 53 187 0.0 0.9 0.00 0.00 0.00 99 1016.1
20260502111839 53 261 0.9 0.9 0.00 0.00 0.00 99 1016.1
20260502111337 53 185 0.0 0.0 0.00 0.00 0.00 99 1015.9
20260502110834 53 166 0.0 0.0 0.00 0.00 0.00 99 1016.1
20260502110332 53 181 0.0 0.0 0.00 0.00 0.00 99 1015.9
20260502105829 53 196 0.0 0.0 0.00 0.00 0.00 99 1016.1
20260502105326 53 201 0.0 0.0 0.00 0.00 0.00 99 1015.8
20260502104824 54 201 0.0 0.0 0.00 0.00 0.00 99 1015.9
20260502104321 54 190 0.0 0.0 0.00 0.00 0.00 99 1015.6
20260502103818 54 167 0.0 0.0 0.00 0.00 0.00 99 1015.6
20260502103315 54 160 0.0 0.0 0.00 0.00 0.00 99 1015.5
20260502102813 54 155 0.0 0.0 0.00 0.00 0.00 98 1015.5
20260502102308 54 167 0.0 0.0 0.00 0.00 0.00 98 1015.4
20260502101807 55 173 0.0 0.0 0.00 0.00 0.00 97 1015.4
20260502101304 55 154 0.0 1.7 0.00 0.00 0.00 97 1015.3
20260502100803 55 143 0.0 0.0 0.00 0.00 0.00 96 1015.2
20260502100301 55 123 0.0 1.7 0.00 0.00 0.00 96 1015.1
20260502091235 56 28 0.9 4.3 0.00 0.00 0.00 96 1014.1
20260502090732 56 91 0.9 7.0 0.00 0.00 0.00 97 1014.0
20260502090229 56 117 0.0 1.7 0.00 0.00 0.00 97 1013.9
20260502071130 55 119 0.0 4.3 0.00 0.00 0.00 99 1014.0
20260502070628 55 56 0.0 2.6 0.00 0.00 0.00 99 1014.0
20260502070126 55 106 0.9 2.6 0.00 0.00 0.00 99 1014.0
20260502065624 55 44 0.0 1.7 0.00 0.00 0.00 99 1014.2
20260502065121 55 19 1.7 6.1 0.00 0.00 0.00 99 1014.1
20260502064620 55 65 0.0 2.6 0.00 0.00 0.00 99 1014.0
20260502064116 55 43 1.7 4.3 0.00 0.00 0.00 99 1014.0
20260502063614 55 81 0.0 4.3 0.00 0.00 0.00 99 1014.1
20260502063111 55 17 0.9 1.7 0.00 0.00 0.00 99 1014.0
20260502062609 55 96 0.0 2.6 0.00 0.00 0.00 99 1013.9
20260502062106 55 108 0.0 2.6 0.00 0.00 0.00 99 1014.0
20260502061604 55 27 2.6 5.2 0.00 0.00 0.00 99 1013.7
20260502061101 55 76 0.9 1.7 0.00 0.00 0.00 99 1013.8
20260502060556 55 91 0.9 7.0 0.00 0.00 0.00 99 1013.7
20260502060054 55 62 2.6 5.2 0.00 0.00 0.00 99 1013.8
20260502055551 55 65 1.7 2.6 0.00 0.00 0.00 99 1013.7
20260502055049 55 38 0.9 11.3 0.00 0.00 0.00 99 1013.9
20260502054548 55 40 2.6 5.2 0.00 0.00 0.00 99 1013.7
20260502054044 55 94 0.0 6.1 0.00 0.00 0.00 99 1013.7
20260502053541 55 135 0.0 4.3 0.00 0.00 0.00 99 1013.7
20260502053039 55 115 0.0 1.7 0.00 0.00 0.00 99 1013.7
20260502052538 55 102 0.9 1.7 0.00 0.00 0.00 99 1013.7
20260502052035 56 91 0.0 1.7 0.00 0.00 0.00 99 1013.4
20260502051533 56 96 0.9 2.6 0.00 0.00 0.00 99 1013.7
20260502051030 55 95 0.9 5.2 0.00 0.00 0.00 99 1013.6
20260502050526 55 22 0.9 4.3 0.00 0.00 0.00 99 1013.8
20260502050024 55 70 0.0 5.2 0.00 3.90 3.90 99 1013.5
20260502045520 55 62 1.7 5.2 0.00 3.90 3.90 99 1013.2
20260502045017 55 106 0.9 2.6 0.00 3.90 3.90 99 1013.3
20260502044514 55 104 0.0 5.2 0.00 3.90 3.90 99 1013.4
20260502044010 55 127 0.0 5.2 0.00 3.90 3.90 99 1013.2
20260502043508 55 128 2.6 7.0 0.00 3.90 3.90 99 1013.3
20260502043004 55 21 0.9 7.8 0.00 3.90 3.90 99 1013.4
20260502042459 55 71 0.9 4.3 0.00 3.90 3.90 99 1013.5
20260502041957 55 150 0.0 2.6 0.00 3.90 3.90 99 1013.9
20260502041455 55 119 0.9 2.6 0.00 3.90 3.90 99 1013.7
20260502040951 55 93 0.9 5.2 0.00 3.90 3.90 99 1013.6
20260502040448 56 105 0.0 4.3 0.00 3.90 3.90 99 1013.6
20260502035944 55 37 2.6 7.0 0.00 3.90 3.90 99 1013.4
20260502035440 56 100 0.0 5.2 0.00 3.90 3.90 99 1013.3
20260502034938 56 66 0.9 2.6 0.00 3.90 3.90 99 1013.5
20260502034437 56 140 0.0 2.6 0.00 3.90 3.90 99 1013.5
20260502033935 56 112 0.0 6.1 0.00 3.90 3.90 99 1013.2
20260502033432 56 90 0.0 2.6 0.00 3.90 3.90 99 1013.3
20260502032928 56 107 0.0 1.7 0.00 3.90 3.90 99 1013.4
20260502032425 56 82 1.7 5.2 0.00 3.90 3.90 99 1013.1
20260502031922 56 86 0.0 5.2 0.00 3.90 3.90 99 1013.1
20260502031421 56 93 0.0 4.3 0.00 3.90 3.90 99 1012.9
20260502030918 56 132 0.0 4.3 0.00 3.90 3.90 99 1012.9
20260502030416 56 105 0.0 5.2 0.00 3.90 3.90 99 1012.9
20260502025914 56 25 0.0 0.9 0.00 3.90 3.90 99 1012.6
20260502025411 57 27 0.9 7.0 0.00 3.90 3.90 99 1012.3
20260502024909 57 104 0.9 7.8 0.00 3.90 3.90 99 1012.3
20260502024407 57 49 1.7 4.3 0.00 3.90 3.90 99 1011.7
20260502023904 57 103 0.9 4.3 0.00 3.90 3.90 99 1011.7
20260502023401 57 100 1.7 6.1 0.00 3.90 3.90 99 1011.5
20260502022859 57 104 0.9 4.3 0.00 3.90 3.90 99 1011.7
20260502022355 58 124 0.9 7.0 0.00 3.90 3.90 99 1011.4
20260502021852 58 62 0.9 5.2 0.00 3.90 3.90 99 1011.4
20260502021350 58 27 0.9 4.3 0.00 3.90 3.90 99 1011.1
20260502020847 58 54 1.7 5.2 0.00 3.90 3.90 99 1010.8
20260502020344 59 135 0.0 0.9 0.00 3.90 3.90 99 1011.2
20260502015841 59 87 0.9 1.7 0.00 3.90 3.90 99 1011.3
20260502015338 58 139 0.0 0.0 0.05 3.90 3.90 99 1011.3
20260502014835 58 58 0.9 2.6 0.05 3.90 3.90 99 1011.3
20260502014333 58 93 0.9 5.2 0.07 3.89 3.89 99 1011.1
20260502013828 58 63 0.0 6.1 0.07 3.89 3.89 99 1011.0
20260502013324 58 117 0.0 2.6 0.00 3.88 3.88 99 1011.2
20260502012821 58 39 0.9 1.7 0.05 3.88 3.88 99 1011.2
20260502012319 58 139 0.9 1.7 0.07 3.87 3.87 99 1011.2
20260502011816 58 79 2.6 6.1 0.07 3.87 3.87 99 1010.9
20260502011312 59 105 0.9 1.7 0.00 3.86 3.86 99 1010.8
20260502010809 59 79 0.0 4.3 0.00 3.86 3.86 99 1010.5
20260502010305 59 109 0.0 4.3 0.07 3.86 3.86 99 1010.3
20260502005802 59 120 0.9 1.7 0.12 3.86 3.86 99 1010.2
20260502005301 59 352 1.7 4.3 0.17 3.85 3.85 99 1009.9
20260502004757 59 27 0.9 5.2 0.12 3.84 3.84 99 1010.0
20260502004253 59 3 2.6 5.2 0.00 3.82 3.82 99 1010.6
20260502003751 59 88 2.6 5.2 0.00 3.82 3.82 99 1010.5
20260502003248 59 318 2.6 4.3 0.07 3.82 3.82 99 1010.1
20260502002744 59 62 0.0 5.2 0.00 3.81 3.81 99 1009.7
20260502002242 59 10 0.9 4.3 0.00 3.81 3.81 99 1009.5
20260502001739 59 74 0.9 2.6 0.00 3.81 3.81 99 1009.4
20260502001237 59 17 1.7 5.2 0.05 3.81 3.81 99 1009.7
20260502000734 59 72 0.0 5.2 0.12 3.81 3.81 99 1009.5
20260502000233 59 109 0.9 1.7 0.12 3.80 3.80 99 1009.7
20260501235732 59 63 0.9 6.1 0.17 3.79 3.79 99 1009.4
20260501235229 59 140 0.0 2.6 0.31 3.77 3.77 99 1009.3
20260501234725 59 15 0.9 5.2 0.54 3.75 3.75 99 1009.3
20260501234222 59 121 0.9 1.7 0.73 3.71 3.71 99 1009.9
20260501233720 60 39 0.0 4.3 0.42 3.65 3.65 99 1010.0
20260501233217 60 43 0.0 7.0 0.07 3.58 3.58 99 1009.5
20260501232713 60 62 0.9 5.2 0.07 3.58 3.58 99 1009.0
20260501232210 60 105 0.9 4.3 0.00 3.57 3.57 99 1008.1
20260501231708 60 9 2.6 9.6 0.05 3.57 3.57 99 1007.5
20260501231206 60 43 6.1 7.8 0.05 3.57 3.57 99 1007.4
20260501230704 60 17 0.0 5.2 0.07 3.56 3.56 99 1007.9
20260501230202 60 36 0.9 2.6 0.12 3.55 3.55 99 1008.7
20260501225659 60 31 0.9 2.6 0.17 3.55 3.55 99 1008.9
20260501225156 60 111 0.0 5.2 0.17 3.53 3.53 99 1008.8
20260501224652 60 127 0.0 7.0 0.19 3.52 3.52 99 1008.1
20260501224150 60 112 1.7 4.3 0.07 3.50 3.50 99 1008.2
20260501223646 60 40 2.6 6.1 0.00 3.49 3.49 99 1007.9
20260501223143 60 94 1.7 5.2 0.00 3.49 3.49 99 1007.7
20260501222638 61 234 0.9 4.3 0.00 3.49 3.49 99 1007.9
20260501222136 61 63 2.6 9.6 0.00 3.49 3.49 99 1007.7
20260501221632 61 26 2.6 8.7 0.00 3.49 3.49 99 1007.3
20260501221130 61 23 2.6 7.8 0.00 3.49 3.49 99 1007.2
20260501220628 62 46 3.5 8.7 0.00 3.49 3.49 99 1007.5
20260501220124 62 3 3.5 7.8 0.00 3.49 3.49 99 1007.6
20260501215621 62 40 0.9 9.6 0.00 3.49 3.49 99 1007.8
20260501215116 62 123 1.7 8.7 0.07 3.49 3.49 99 1007.8
20260501214611 62 44 0.9 5.2 0.12 3.49 3.49 99 1008.2
20260501214107 62 132 0.9 6.1 0.28 3.48 3.48 99 1008.2
20260501213604 62 151 0.0 4.3 0.52 3.46 3.46 99 1008.4
20260501213101 62 86 2.6 7.0 0.78 3.42 3.42 99 1008.1
20260501212557 62 117 0.0 4.3 1.44 3.36 3.36 99 1008.7
20260501212054 62 28 1.7 5.2 1.44 3.26 3.26 99 1009.0
20260501211551 62 45 2.6 2.6 0.85 3.06 3.06 99 1007.9
20260501211049 62 98 1.7 5.2 0.85 2.99 2.99 99 1008.4
20260501210544 62 87 0.9 5.2 0.90 2.91 2.91 99 1008.4
20260501210042 62 44 0.9 2.6 0.52 2.83 2.83 99 1008.3
20260501205538 62 112 0.9 4.3 0.19 2.75 2.75 99 1007.9
20260501205036 62 146 0.0 4.3 0.19 2.73 2.73 99 1007.9
20260501204532 62 110 0.9 5.2 0.12 2.71 2.71 99 1006.8
20260501204028 62 132 1.7 5.2 0.12 2.70 2.70 99 1006.8
20260501203525 62 74 0.0 6.1 0.24 2.69 2.69 99 1007.0
20260501203023 62 137 0.0 4.3 0.24 2.68 2.68 99 1007.0
20260501202520 62 129 0.9 6.1 0.24 2.65 2.65 99 1006.6
20260501202016 62 119 0.9 6.1 0.26 2.63 2.63 99 1006.6
20260501201513 62 91 0.9 2.6 0.31 2.61 2.61 99 1007.0
20260501201010 62 99 1.7 5.2 0.42 2.58 2.58 99 1007.4
20260501200507 62 77 2.6 4.3 0.28 2.55 2.55 99 1007.4
20260501200004 62 98 0.0 1.7 0.05 2.51 2.51 99 1007.2
20260501195501 62 144 0.0 1.7 0.00 2.50 2.50 99 1007.0
20260501194956 62 109 0.0 0.9 0.00 2.50 2.50 99 1006.9
20260501194452 62 75 2.6 2.6 0.00 2.50 2.50 99 1006.7
20260501193948 63 83 0.9 2.6 0.00 2.50 2.50 99 1006.4
20260501193447 63 162 0.0 2.6 0.07 2.50 2.50 99 1006.6
20260501192944 63 123 0.0 5.2 0.07 2.50 2.50 99 1006.7
20260501192441 63 27 1.7 6.1 0.07 2.49 2.49 99 1006.5
20260501191939 63 80 0.0 2.6 0.07 2.49 2.49 99 1006.6
20260501191436 63 195 0.0 0.9 0.05 2.48 2.48 99 1006.7
20260501190933 62 108 1.7 2.6 0.52 2.48 2.48 99 1006.9
20260501190428 62 162 0.0 2.6 0.83 2.46 2.46 99 1007.0
20260501185923 62 63 1.7 2.6 0.38 2.37 2.37 99 1007.1
20260501185420 62 34 0.9 2.6 0.19 2.32 2.32 99 1007.5
20260501184915 62 163 0.0 1.7 0.07 2.30 2.30 99 1007.4
20260501184412 62 12 1.7 2.6 0.00 2.29 2.29 99 1006.6
20260501183907 62 35 1.7 6.1 0.05 2.29 2.29 99 1006.3
20260501183405 62 354 2.6 5.2 0.12 2.29 2.29 99 1006.0
20260501182901 62 114 4.3 11.3 0.19 2.28 2.28 99 1005.7
20260501182358 63 45 1.7 9.6 1.79 2.27 2.27 99 1006.0
20260501181854 63 110 0.9 5.2 2.62 2.18 2.18 99 1007.1
20260501181352 63 127 1.7 4.3 0.97 1.86 1.86 99 1007.5
20260501180849 63 325 2.6 4.3 0.24 1.73 1.73 99 1008.7
20260501180345 63 246 2.6 4.3 0.12 1.70 1.70 99 1007.3
20260501175842 63 25 0.9 7.0 0.19 1.69 1.69 99 1006.2
20260501175339 63 148 2.6 8.7 0.66 1.68 1.68 99 1006.2
20260501174836 63 206 1.7 5.2 1.32 1.65 1.65 99 1006.6
20260501174333 63 169 0.0 9.6 1.09 1.53 1.53 99 1007.5
20260501173831 63 86 1.7 6.1 0.47 1.42 1.42 99 1008.1
20260501173328 63 334 2.6 6.1 0.24 1.35 1.35 99 1008.4
20260501172824 63 16 2.6 6.1 0.35 1.33 1.33 99 1007.9
20260501172319 63 99 1.7 6.1 0.40 1.31 1.31 99 1007.7
20260501171815 63 119 0.9 2.6 0.31 1.27 1.27 99 1007.9
20260501171312 63 85 2.6 4.3 0.14 1.24 1.24 99 1008.2
20260501170808 63 105 0.0 1.7 0.05 1.22 1.22 99 1008.1
20260501170306 63 354 0.0 8.7 0.05 1.22 1.22 99 1008.0
20260501165803 63 31 2.6 4.3 0.07 1.21 1.21 99 1007.9
20260501165301 63 48 2.6 7.0 0.17 1.20 1.20 99 1008.0
20260501164758 63 25 3.5 7.8 0.12 1.19 1.19 99 1008.6
20260501164255 63 115 0.9 4.3 0.07 1.17 1.17 99 1008.9
20260501163751 63 40 1.7 5.2 0.00 1.16 1.16 99 1008.7